, TX

(GMT )
Port Isabel

Weather History for KPIL - March, 2012

Change the Weather History Date:

Monday, March 12, 2012

  Actual Average Record
Temperature  
Mean Temperature 72 °F -  
Max Temperature 82 °F - - ()
Min Temperature 63 °F - - ()
Cooling Degree Days 8    
Growing Degree Days 22 (Base 50)    
Moisture  
Dew Point 66 °F    
Average Humidity 90    
Maximum Humidity 100    
Minimum Humidity 62    
Precipitation  
Precipitation 0.01 in - - ()
Sea Level Pressure  
Sea Level Pressure 30.04 in    
Wind  
Wind Speed 7 mph (SE)    
Max Wind Speed 16 mph    
Max Gust Speed 21 mph    
Visibility 5 miles    
Events Fog    
T = Trace of Precipitation, MM = Missing Value Source: NWS Daily Summary

Daily Weather History Graph

Daily Weather History Graph

Search for Another Location

Airport or City:

Trip Planner

Search our weather history database for the weather conditions in past years. The results will help you decide how hot, cold, wet, or windy it might be!

Date:

Astronomy

Mar. 12, 2012 Rise Set
Actual Time 7:41 AM CDT 7:37 PM CDT
Civil Twilight 7:18 AM CDT 8:00 PM CDT
Nautical Twilight 6:51 AM CDT 8:26 PM CDT
Astronomical Twilight 6:24 AM CDT 8:53 PM CDT
Moon No Moon Rise 10:37 AM CDT (3/12)
Length of Visible Light 12h 41m
Length of Day
11h 55m
Waning Gibbous, 76% of the Moon is Illuminated
Mar 12
Waning Gibbous
Mar 14
Last Quarter
Mar 22
New
Mar 30
First Quarter
Apr 6
Full

Hourly Weather History & Observations

Time (CDT) Temp. Heat Index Dew Point Humidity Pressure Visibility Wind Dir Wind Speed Gust Speed Precip Events Conditions
12:53 AM 63.0 °F - 61.0 °F 93% 30.04 in 8.0 mi SSE 6.9 mph - N/A   Clear
1:02 AM 64.4 °F - 60.8 °F 88% 30.04 in 7.0 mi SSE 10.4 mph - N/A   Scattered Clouds
1:10 AM 64.4 °F - 62.6 °F 94% 30.04 in 6.0 mi SSE 10.4 mph - N/A   Mostly Cloudy
1:43 AM 64.4 °F - 62.6 °F 94% 30.04 in 1.8 mi SSE 9.2 mph - N/A   Overcast
1:53 AM 64.0 °F - 63.0 °F 96% 30.04 in 1.2 mi SE 10.4 mph - N/A   Overcast
2:04 AM 64.4 °F - 62.6 °F 94% 30.03 in 3.0 mi SE 9.2 mph - N/A   Overcast
2:37 AM 64.4 °F - 64.4 °F 100% 30.02 in 2.5 mi SE 10.4 mph - N/A   Overcast
2:53 AM 64.9 °F - 64.0 °F 97% 30.01 in 2.0 mi SE 8.1 mph - N/A   Overcast
3:01 AM 64.4 °F - 64.4 °F 100% 30.01 in 1.0 mi SE 10.4 mph - N/A   Mist
3:53 AM 64.9 °F - 64.0 °F 97% 30.00 in 0.8 mi SE 9.2 mph - N/A   Mist
4:53 AM 64.0 °F - 63.0 °F 96% 29.99 in 0.5 mi SE 6.9 mph - N/A Fog Fog
5:53 AM 66.0 °F - 64.9 °F 96% 29.99 in 0.5 mi SE 6.9 mph - N/A Fog Fog
6:53 AM 66.0 °F - 64.9 °F 96% 30.00 in 3.0 mi ESE 4.6 mph - N/A   Overcast
7:40 AM 64.4 °F - 62.6 °F 94% 30.01 in 1.8 mi Calm Calm - N/A   Overcast
7:53 AM 64.9 °F - 64.0 °F 97% 30.01 in 1.8 mi SE 3.5 mph - N/A   Mostly Cloudy
7:55 AM 64.4 °F - 64.4 °F 100% 30.02 in 2.0 mi SSE 3.5 mph - N/A   Scattered Clouds
8:15 AM 66.2 °F - 64.4 °F 94% 30.02 in 4.0 mi Calm Calm - N/A   Partly Cloudy
8:30 AM 66.2 °F - 64.4 °F 94% 30.04 in 4.0 mi Calm Calm - N/A   Mostly Cloudy
9:02 AM 66.2 °F - 66.2 °F 100% 30.05 in 4.0 mi Calm Calm - N/A   Scattered Clouds
9:35 AM 71.6 °F - 68.0 °F 88% 30.07 in 5.0 mi Calm Calm - N/A   Mostly Cloudy
9:53 AM 71.1 °F - 68.0 °F 90% 30.07 in 6.0 mi Calm Calm - N/A   Overcast
10:53 AM 72.0 °F - 68.0 °F 87% 30.09 in 6.0 mi ESE 4.6 mph - N/A   Overcast
11:15 AM 73.4 °F - 69.8 °F 88% 30.09 in 6.0 mi East 8.1 mph - N/A   Overcast
11:53 AM 73.0 °F - 69.1 °F 87% 30.10 in 6.0 mi Variable 3.5 mph - N/A   Overcast
12:43 PM 73.4 °F - 69.8 °F 88% 30.09 in 5.0 mi ENE 5.8 mph - 0.01 in   Overcast
12:53 PM 73.9 °F - 71.1 °F 91% 30.09 in 5.0 mi ENE 4.6 mph - 0.01 in   Overcast
1:53 PM 81.0 °F 84.9 °F 71.1 °F 72% 30.06 in 7.0 mi SE 13.8 mph 18.4 mph N/A   Mostly Cloudy
2:53 PM 82.0 °F 85.5 °F 69.1 °F 65% 30.03 in 8.0 mi SE 15.0 mph - N/A   Partly Cloudy
3:53 PM 82.0 °F 84.9 °F 68.0 °F 62% 30.01 in 8.0 mi SSE 13.8 mph - N/A   Clear
4:53 PM 80.1 °F 82.9 °F 69.1 °F 69% 30.00 in 8.0 mi ESE 11.5 mph - N/A   Clear
5:53 PM 77.0 °F - 69.1 °F 76% 30.00 in 8.0 mi ESE 16.1 mph 20.7 mph N/A   Clear
6:53 PM 73.9 °F - 69.1 °F 85% 30.01 in 7.0 mi ESE 13.8 mph - N/A   Clear
7:53 PM 72.0 °F - 69.1 °F 91% 30.03 in 7.0 mi ESE 11.5 mph - N/A   Clear
8:53 PM 70.0 °F - 68.0 °F 93% 30.05 in 6.0 mi ESE 4.6 mph - N/A   Clear
9:06 PM 69.8 °F - 68.0 °F 94% 30.06 in 6.0 mi ESE 3.5 mph - N/A   Partly Cloudy
9:21 PM 69.8 °F - 66.2 °F 88% 30.06 in 6.0 mi ESE 5.8 mph - N/A   Mostly Cloudy
9:53 PM 70.0 °F - 68.0 °F 93% 30.07 in 5.0 mi ESE 5.8 mph - N/A   Partly Cloudy
10:53 PM 70.0 °F - 69.1 °F 97% 30.08 in 6.0 mi ESE 8.1 mph - N/A   Clear
11:53 PM 70.0 °F - 68.0 °F 93% 30.07 in 5.0 mi ESE 6.9 mph - N/A   Clear